Location: Newark
(45.6833°N, 12.6333°E)
Time: 10:54:21
(UTC+00:00)

N. Korean satellite - Pass Details

Date: 23 November 2019
Orbit: 455 x 507 km, 97.2° (Epoch: 12 December)

Event Time Altitude Azimuth Distance (km) Brightness Sun altitude
Rises 04:25:12 0° 23° (NNE) 2,610 10.4 -19.6°
Reaches altitude 10° 04:27:33 10° 35° (NE) 1,714 9.6 -19.2°
Maximum altitude 04:30:44 27° 95° (E) 984 8.9 -18.6°
Drops below altitude 10° 04:33:51 10° 155° (SSE) 1,679 9.8 -18.1°
Sets 04:36:07 0° 168° (SSE) 2,544 10.5 -17.7°
